Local,Data,Vel_media,Vel_mediana,Vel_std,Volume
5098,2018-03-22 07:00:00,95.58955223880596,97.0,21.7560682699085,134
5098,2018-03-22 07:04:00,91.83177570093459,89.0,19.60096550438095,107
5098,2018-03-22 07:08:00,91.24675324675324,86.0,19.629566746000275,77
5098,2018-03-22 07:12:00,93.03960396039604,92.0,19.968435488079287,101
5098,2018-03-22 07:16:00,102.89887640449439,103.0,21.675313221926967,89
5098,2018-03-22 07:20:00,95.22123893805309,94.0,22.511399696786306,113
5098,2018-03-22 07:24:00,90.91269841269842,92.0,18.66805607074067,126
5098,2018-03-22 07:28:00,93.98571428571428,93.0,21.44861933135865,70
5098,2018-03-22 07:32:00,98.16,98.5,25.86629178110096,100
5098,2018-03-22 07:36:00,82.88888888888889,83.0,18.672451262142093,108
5098,2018-03-22 07:40:00,93.84482758620689,97.0,17.854291140897413,116
5098,2018-03-22 07:44:00,92.08396946564885,92.0,19.003658825013723,131
5098,2018-03-22 07:48:00,96.05607476635514,97.0,16.29262582106705,107
5098,2018-03-22 07:52:00,97.35526315789474,100.0,18.991252044952834,152
5098,2018-03-22 07:56:00,92.16058394160584,94.0,20.87646915458616,137
5098,2018-03-22 08:00:00,89.4074074074074,89.0,18.175059299538365,135
5098,2018-03-22 08:04:00,94.09352517985612,94.0,15.853446608454426,139
5098,2018-03-22 08:08:00,94.72222222222223,92.0,20.009265766411907,108
5098,2018-03-22 08:12:00,91.54782608695652,92.0,22.55801233866236,115
5098,2018-03-22 08:16:00,93.94690265486726,94.0,24.48317232157507,113
5098,2018-03-22 08:20:00,94.45977011494253,92.0,21.488127926997354,87
5098,2018-03-22 08:24:00,91.63571428571429,92.0,18.823378512446066,140
5098,2018-03-22 08:28:00,88.8943661971831,89.0,20.766758676006752,142
5098,2018-03-22 08:32:00,88.57534246575342,92.0,16.93795396040108,146
5098,2018-03-22 08:36:00,93.17164179104478,92.0,21.71985894227276,134
5098,2018-03-22 08:40:00,92.52941176470588,94.0,14.627696295407395,136
5098,2018-03-22 08:44:00,90.75,92.0,15.24212000419306,136
5098,2018-03-22 08:48:00,90.81451612903226,94.0,17.552414855046013,124
5098,2018-03-22 08:52:00,88.02857142857142,89.0,16.40910695951463,105
5098,2018-03-22 08:56:00,88.66956521739131,86.0,19.511454907728517,115
5129,2018-03-22 07:00:00,0.0,0.0,0.0,89
5129,2018-03-22 07:04:00,0.0,0.0,0.0,92
5129,2018-03-22 07:08:00,0.0,0.0,0.0,87
5129,2018-03-22 07:12:00,0.0,0.0,0.0,96
5129,2018-03-22 07:16:00,0.0,0.0,0.0,76
5129,2018-03-22 07:20:00,0.0,0.0,0.0,78
5129,2018-03-22 07:24:00,0.0,0.0,0.0,47
5129,2018-03-22 07:28:00,0.0,0.0,0.0,50
5129,2018-03-22 07:32:00,0.0,0.0,0.0,58
5129,2018-03-22 07:36:00,0.0,0.0,0.0,58
5129,2018-03-22 07:40:00,0.0,0.0,0.0,57
5129,2018-03-22 07:44:00,0.0,0.0,0.0,76
5129,2018-03-22 07:48:00,0.0,0.0,0.0,51
5129,2018-03-22 07:52:00,0.0,0.0,0.0,47
5129,2018-03-22 07:56:00,0.0,0.0,0.0,45
5129,2018-03-22 08:00:00,0.0,0.0,0.0,39
5129,2018-03-22 08:04:00,0.0,0.0,0.0,32
5129,2018-03-22 08:08:00,0.0,0.0,0.0,34
5129,2018-03-22 08:12:00,0.0,0.0,0.0,45
5129,2018-03-22 08:16:00,0.0,0.0,0.0,35
5129,2018-03-22 08:20:00,0.0,0.0,0.0,31
5129,2018-03-22 08:24:00,0.0,0.0,0.0,53
5129,2018-03-22 08:28:00,0.0,0.0,0.0,44
5129,2018-03-22 08:32:00,0.0,0.0,0.0,43
5129,2018-03-22 08:36:00,0.0,0.0,0.0,40
5129,2018-03-22 08:40:00,0.0,0.0,0.0,37
5129,2018-03-22 08:44:00,0.0,0.0,0.0,72
5129,2018-03-22 08:48:00,0.0,0.0,0.0,76
5129,2018-03-22 08:52:00,0.0,0.0,0.0,69
5129,2018-03-22 08:56:00,0.0,0.0,0.0,84
5151,2018-03-22 07:00:00,96.62295081967213,103.0,29.011586153596312,61
5151,2018-03-22 07:04:00,102.1625,103.0,17.066099159044192,80
5151,2018-03-22 07:08:00,96.47297297297297,103.0,25.999590604244144,74
5151,2018-03-22 07:12:00,93.41836734693878,101.5,27.084413088684617,98
5151,2018-03-22 07:16:00,101.05633802816901,108.0,21.823897336860313,71
5151,2018-03-22 07:20:00,93.2235294117647,100.0,24.844457305876684,85
5151,2018-03-22 07:24:00,93.38947368421053,103.0,28.911565357520384,95
5151,2018-03-22 07:28:00,93.3409090909091,97.0,23.999466643324695,88
5151,2018-03-22 07:32:00,93.09708737864078,97.0,24.506707590446794,103
5151,2018-03-22 07:36:00,100.55,106.0,27.111611825900717,120
5151,2018-03-22 07:40:00,89.976,97.0,25.00208507433962,125
5151,2018-03-22 07:44:00,91.40845070422536,94.0,21.70405555120732,142
5151,2018-03-22 07:48:00,89.07627118644068,89.0,23.593841286676316,118
5151,2018-03-22 07:52:00,92.27586206896552,100.0,23.944350774931937,116
5151,2018-03-22 07:56:00,86.92307692307692,92.0,24.820793598750928,91
5151,2018-03-22 08:00:00,92.42391304347827,97.0,25.193420428188716,92
5151,2018-03-22 08:04:00,99.29591836734694,106.0,24.71954407866749,98
5151,2018-03-22 08:08:00,89.73737373737374,92.0,25.55250131874783,99
5151,2018-03-22 08:12:00,91.77876106194691,97.0,24.85412243517674,113
5151,2018-03-22 08:16:00,82.63478260869566,83.0,24.50862019306913,115
5151,2018-03-22 08:20:00,86.23622047244095,92.0,23.381398349465815,127
5151,2018-03-22 08:24:00,91.34027777777777,94.0,22.7184540971796,144
5151,2018-03-22 08:28:00,90.56701030927834,97.0,25.931362613837116,97
5151,2018-03-22 08:32:00,74.92903225806451,72.0,23.130940002970707,155
5151,2018-03-22 08:36:00,69.056,67.0,16.984957291484378,125
5151,2018-03-22 08:40:00,47.12,44.0,18.06289796318085,100
5151,2018-03-22 08:44:00,47.016129032258064,47.0,15.382380307292328,124
5151,2018-03-22 08:48:00,41.27358490566038,39.0,12.45757220012366,106
5151,2018-03-22 08:52:00,44.08148148148148,42.0,14.527920546340205,135
5151,2018-03-22 08:56:00,54.97345132743363,53.0,24.870184450243382,113
5194,2018-03-22 07:00:00,81.85714285714286,86.0,16.607955196958347,14
5194,2018-03-22 07:04:00,64.0,67.0,25.979281686048925,14
5194,2018-03-22 07:08:00,76.82352941176471,97.0,36.022970612717465,17
5194,2018-03-22 07:12:00,91.65,98.5,15.91515332201226,20
5194,2018-03-22 07:16:00,65.70833333333333,75.0,28.361761101060406,24
5194,2018-03-22 07:20:00,73.0,79.5,27.32171646284674,22
5194,2018-03-22 07:24:00,83.95238095238095,89.0,14.122592504480862,21
5194,2018-03-22 07:28:00,61.90909090909091,61.0,22.790785713088376,22
5194,2018-03-22 07:32:00,84.6875,83.0,18.62156008501973,16
5194,2018-03-22 07:36:00,81.11111111111111,82.0,25.580067812283957,18
5194,2018-03-22 07:40:00,79.61538461538461,83.0,22.75059875233493,13
5194,2018-03-22 07:44:00,66.71428571428571,64.0,24.351884643991845,21
5194,2018-03-22 07:48:00,66.95454545454545,67.0,20.024930349387873,22
5194,2018-03-22 07:52:00,73.33333333333333,75.0,20.845586140438975,27
5194,2018-03-22 07:56:00,45.964285714285715,39.0,21.46742949448138,28
5194,2018-03-22 08:00:00,74.2,90.5,34.43773939643603,20
5194,2018-03-22 08:04:00,93.19047619047619,94.0,9.785801181400771,21
5194,2018-03-22 08:08:00,82.68181818181819,83.5,16.09018145932293,22
5194,2018-03-22 08:12:00,96.75,98.5,14.958638626733965,24
5194,2018-03-22 08:16:00,53.52173913043478,61.0,21.927296324687905,23
5194,2018-03-22 08:20:00,42.333333333333336,39.0,21.805080565353077,27
5194,2018-03-22 08:24:00,65.6086956521739,78.0,27.09031885183471,23
5194,2018-03-22 08:28:00,79.96153846153847,82.0,24.81851046171912,26
5194,2018-03-22 08:32:00,69.12,75.0,26.128400895066907,25
5194,2018-03-22 08:36:00,68.08,67.0,28.909225747732044,25
5194,2018-03-22 08:40:00,80.51515151515152,89.0,28.281090427308058,33
5194,2018-03-22 08:44:00,75.0952380952381,83.0,35.051254987382066,21
5194,2018-03-22 08:48:00,52.407407407407405,47.0,20.943622600575278,27
5194,2018-03-22 08:52:00,95.9375,100.0,21.04670305956302,32
5194,2018-03-22 08:56:00,54.88235294117647,44.0,23.978228389940373,34
5195,2018-03-22 07:00:00,82.81767955801105,83.0,18.78489100690209,181
5195,2018-03-22 07:04:00,62.52694610778443,58.0,22.80742173944026,167
5195,2018-03-22 07:08:00,54.909677419354836,56.0,17.453227938684623,155
5195,2018-03-22 07:12:00,66.88607594936708,67.0,19.77709370608237,158
5195,2018-03-22 07:16:00,53.376344086021504,56.0,16.91340732550892,93
5195,2018-03-22 07:20:00,50.43037974683544,50.0,12.433449382578491,158
5195,2018-03-22 07:24:00,51.8502994011976,50.0,15.962542276652403,167
5195,2018-03-22 07:28:00,54.17307692307692,53.0,23.387386581587645,156
5195,2018-03-22 07:32:00,62.266666666666666,67.0,23.400060267290353,105
5195,2018-03-22 07:36:00,56.986111111111114,56.0,37.61423653747792,72
5195,2018-03-22 07:40:00,54.19298245614035,47.0,39.18209749972003,114
5195,2018-03-22 07:44:00,60.96894409937888,61.0,23.982134590213313,161
5195,2018-03-22 07:48:00,46.08730158730159,44.0,17.533063550341605,126
5195,2018-03-22 07:52:00,39.108108108108105,40.5,12.788658896526803,74
5195,2018-03-22 07:56:00,34.763440860215056,33.0,10.389582836189883,93
5195,2018-03-22 08:00:00,55.15151515151515,53.0,21.422750062755558,165
5195,2018-03-22 08:04:00,50.3,47.0,21.664851068310636,150
5195,2018-03-22 08:08:00,49.720588235294116,47.0,18.53632716685269,136
5195,2018-03-22 08:12:00,61.97714285714286,61.0,17.075543540166393,175
5195,2018-03-22 08:16:00,52.38709677419355,50.0,26.78640552103487,155
5195,2018-03-22 08:20:00,42.73728813559322,42.0,11.98319904072371,118
5195,2018-03-22 08:24:00,60.44375,56.0,55.50621778021045,160
5195,2018-03-22 08:28:00,53.294117647058826,53.0,17.20192857644823,153
5195,2018-03-22 08:32:00,57.92261904761905,58.0,15.557887663452815,168
5195,2018-03-22 08:36:00,47.1578947368421,47.0,15.892063604351083,152
5195,2018-03-22 08:40:00,47.16546762589928,44.0,17.50221398926771,139
5195,2018-03-22 08:44:00,50.04587155963303,44.0,19.948259610849988,109
5195,2018-03-22 08:48:00,51.2027972027972,53.0,19.421042544853407,143
5195,2018-03-22 08:52:00,61.60689655172414,61.0,31.556452182232118,145
5195,2018-03-22 08:56:00,40.39344262295082,37.5,20.81899854572967,122
5196,2018-03-22 07:00:00,106.16666666666667,109.5,15.080591580712028,12
5196,2018-03-22 07:04:00,113.21428571428571,115.5,11.260404224391912,14
5196,2018-03-22 07:08:00,111.2,107.0,25.257782079104956,10
5196,2018-03-22 07:12:00,123.14285714285714,114.0,69.96053309170956,7
5196,2018-03-22 07:16:00,109.14285714285714,108.0,22.51729494030247,21
5196,2018-03-22 07:20:00,108.79310344827586,106.0,21.24412407894883,29
5196,2018-03-22 07:24:00,112.83333333333333,114.0,10.169771011396591,12
5196,2018-03-22 07:28:00,114.55555555555556,86.0,70.5728543972665,9
5196,2018-03-22 07:32:00,142.53333333333333,86.0,227.30686202534565,15
5196,2018-03-22 07:36:00,106.91666666666667,104.5,21.417012065110793,24
5196,2018-03-22 07:40:00,106.375,107.0,45.68494424243925,24
5196,2018-03-22 07:44:00,105.25,106.0,13.85400062557142,16
5196,2018-03-22 07:48:00,108.625,103.0,39.546420253149456,32
5196,2018-03-22 07:52:00,104.58620689655173,106.0,12.896614288196814,29
5196,2018-03-22 07:56:00,101.05882352941177,104.5,13.091614657159399,34
5196,2018-03-22 08:00:00,107.5,106.0,11.738215975424641,22
5196,2018-03-22 08:04:00,100.0952380952381,100.0,23.939308181116598,21
5196,2018-03-22 08:08:00,114.0,106.0,36.75595189897821,19
5196,2018-03-22 08:12:00,119.72222222222223,111.0,65.32435412485962,18
5196,2018-03-22 08:16:00,96.63157894736842,94.0,15.334096090868108,19
5196,2018-03-22 08:20:00,100.3076923076923,97.0,16.433549174220964,26
5196,2018-03-22 08:24:00,106.73809523809524,106.0,15.840761751530671,42
5196,2018-03-22 08:28:00,101.55555555555556,103.0,15.229862702884683,27
5196,2018-03-22 08:32:00,103.69565217391305,103.0,9.570004192117898,23
5196,2018-03-22 08:36:00,98.46153846153847,97.0,9.470927174171573,26
5196,2018-03-22 08:40:00,103.52173913043478,103.0,25.931499913175784,23
5196,2018-03-22 08:44:00,99.22222222222223,98.5,14.586680288196675,18
5196,2018-03-22 08:48:00,96.35483870967742,97.0,32.30330054044713,31
5196,2018-03-22 08:52:00,100.0,100.0,11.60459679035281,31
5196,2018-03-22 08:56:00,107.27027027027027,108.0,12.35054800549498,37
5197,2018-03-22 07:00:00,82.1047619047619,81.0,24.733381665339007,210
5197,2018-03-22 07:04:00,101.34920634920636,106.0,20.605844086981268,189
5197,2018-03-22 07:08:00,87.25388601036269,86.0,21.93534053776627,193
5197,2018-03-22 07:12:00,73.38709677419355,72.0,19.262980696884757,217
5197,2018-03-22 07:16:00,64.86224489795919,64.0,20.74500627117282,196
5197,2018-03-22 07:20:00,66.74489795918367,64.0,20.719276902781857,196
5197,2018-03-22 07:24:00,80.60765550239235,78.0,22.090268018100655,209
5197,2018-03-22 07:28:00,89.60396039603961,93.0,21.010577392034765,202
5197,2018-03-22 07:32:00,81.10762331838565,83.0,15.82241212353607,223
5197,2018-03-22 07:36:00,65.76923076923077,64.0,15.23948680375944,221
5197,2018-03-22 07:40:00,73.46116504854369,67.0,24.759840548797857,206
5197,2018-03-22 07:44:00,92.12935323383084,94.0,21.57366876726354,201
5197,2018-03-22 07:48:00,95.26699029126213,95.5,19.106417710464054,206
5197,2018-03-22 07:52:00,54.73658536585366,53.0,13.203864483655002,205
5197,2018-03-22 07:56:00,55.27142857142857,53.0,15.05707301271348,210
5197,2018-03-22 08:00:00,59.123655913978496,58.0,19.276670666052553,186
5197,2018-03-22 08:04:00,79.38738738738739,75.0,20.2864871197358,222
5197,2018-03-22 08:08:00,68.70388349514563,69.0,18.58256944784335,206
5197,2018-03-22 08:12:00,76.41346153846153,72.0,19.757276199898946,208
5197,2018-03-22 08:16:00,79.56716417910448,75.0,23.48524465314148,201
5197,2018-03-22 08:20:00,77.65277777777777,78.0,17.738797097904357,216
5197,2018-03-22 08:24:00,57.77127659574468,58.0,21.187369470973888,188
5197,2018-03-22 08:28:00,58.59139784946237,61.0,18.213589556206134,186
5197,2018-03-22 08:32:00,59.392857142857146,58.0,19.985475495199772,196
5197,2018-03-22 08:36:00,58.25,56.0,17.283590862115574,192
5197,2018-03-22 08:40:00,57.49230769230769,56.0,28.9648505846202,195
5197,2018-03-22 08:44:00,57.47029702970297,56.0,14.708159610070686,202
5197,2018-03-22 08:48:00,57.865284974093264,56.0,27.935239227069008,193
5197,2018-03-22 08:52:00,58.95049504950495,57.0,18.54717059465243,202
5197,2018-03-22 08:56:00,55.678391959798994,56.0,15.934749697004897,199
5198,2018-03-22 07:00:00,118.61538461538461,119.0,13.07375527241798,13
5198,2018-03-22 07:04:00,104.71428571428571,106.0,10.823255385643321,14
5198,2018-03-22 07:08:00,115.47619047619048,119.0,22.91204715344975,21
5198,2018-03-22 07:12:00,103.0,100.0,13.244945127427725,15
5198,2018-03-22 07:16:00,96.07692307692308,100.0,13.45648256703523,13
5198,2018-03-22 07:20:00,114.41666666666667,107.0,20.703352092808252,12
5198,2018-03-22 07:24:00,110.81818181818181,119.0,16.56996186970979,11
5198,2018-03-22 07:28:00,109.2,103.0,21.981160764878375,15
5198,2018-03-22 07:32:00,113.07142857142857,109.5,16.999838396129107,14
5198,2018-03-22 07:36:00,105.0,106.0,25.635262172770283,13
5198,2018-03-22 07:40:00,108.18181818181819,106.0,12.49242194534775,22
5198,2018-03-22 07:44:00,105.52941176470588,103.0,13.825328418607384,17
5198,2018-03-22 07:48:00,103.47058823529412,103.0,11.495203603344873,17
5198,2018-03-22 07:52:00,107.81818181818181,119.0,18.691271662560474,11
5198,2018-03-22 07:56:00,107.73333333333333,106.0,14.384846524165964,15
5198,2018-03-22 08:00:00,110.0,107.0,13.80338122828365,16
5198,2018-03-22 08:04:00,108.33333333333333,111.0,13.982982855020941,15
5198,2018-03-22 08:08:00,105.38461538461539,100.0,10.012812305062463,13
5198,2018-03-22 08:12:00,105.14285714285714,107.0,13.317756468814006,14
5198,2018-03-22 08:16:00,101.77777777777777,100.0,15.777973394718487,9
5198,2018-03-22 08:20:00,111.21428571428571,109.5,13.009928583902436,14
5198,2018-03-22 08:24:00,109.0,114.0,16.16168308066954,16
5198,2018-03-22 08:28:00,114.08333333333333,116.5,24.492887031779556,12
5198,2018-03-22 08:32:00,109.57142857142857,108.0,13.352367366340484,7
5198,2018-03-22 08:36:00,109.125,111.0,19.744619520264248,16
5198,2018-03-22 08:40:00,111.85714285714286,111.0,13.1081721007994,14
5198,2018-03-22 08:44:00,110.2258064516129,108.0,12.99925556181162,31
5198,2018-03-22 08:48:00,114.0,114.0,15.074813431681337,25
5198,2018-03-22 08:52:00,112.08695652173913,114.0,12.139016896985375,23
5198,2018-03-22 08:56:00,110.45833333333333,109.5,17.903070338247343,24
5199,2018-03-22 07:00:00,95.50568181818181,94.0,15.699680491413421,176
5199,2018-03-22 07:04:00,98.14438502673796,100.0,12.317725143514629,187
5199,2018-03-22 07:08:00,94.77966101694915,94.0,16.9967254165159,177
5199,2018-03-22 07:12:00,90.61904761904762,92.0,16.380867704359275,189
5199,2018-03-22 07:16:00,95.11229946524064,94.0,12.188625428871052,187
5199,2018-03-22 07:20:00,98.54494382022472,100.0,14.622585357562428,178
5199,2018-03-22 07:24:00,102.21764705882353,103.0,14.624075767857764,170
5199,2018-03-22 07:28:00,103.92215568862275,106.0,14.596993423707488,167
5199,2018-03-22 07:32:00,103.6842105263158,103.0,14.436666424812211,171
5199,2018-03-22 07:36:00,102.96236559139786,103.0,15.501131006537456,186
5199,2018-03-22 07:40:00,96.80203045685279,94.0,17.6454999738063,197
5199,2018-03-22 07:44:00,100.31111111111112,97.0,17.627203737623763,180
5199,2018-03-22 07:48:00,102.88823529411765,103.0,17.34387269165422,170
5199,2018-03-22 07:52:00,105.77401129943503,106.0,16.557228655480706,177
5199,2018-03-22 07:56:00,108.57803468208093,106.0,28.793591475683566,173
5199,2018-03-22 08:00:00,107.60759493670886,111.0,16.516286285063153,158
5199,2018-03-22 08:04:00,107.27044025157232,108.0,16.055160270889203,159
5199,2018-03-22 08:08:00,108.15714285714286,107.0,15.641335859237197,140
5199,2018-03-22 08:12:00,105.80864197530865,106.0,15.377459486407867,162
5199,2018-03-22 08:16:00,104.225,103.0,17.8067720846725,160
5199,2018-03-22 08:20:00,108.69871794871794,108.0,16.714845582950183,156
5199,2018-03-22 08:24:00,107.12048192771084,111.0,16.235686537442618,166
5199,2018-03-22 08:28:00,106.475,106.0,14.641609527635561,160
5199,2018-03-22 08:32:00,113.06586826347305,108.0,49.54481210298299,167
5199,2018-03-22 08:36:00,103.38787878787879,103.0,19.250463370662484,165
5199,2018-03-22 08:40:00,95.87647058823529,97.0,16.987361449265904,170
5199,2018-03-22 08:44:00,103.67032967032966,100.0,41.38020850895157,182
5199,2018-03-22 08:48:00,93.41798941798942,94.0,16.024578667408772,189
5199,2018-03-22 08:52:00,89.27173913043478,93.0,20.415949653091975,184
5199,2018-03-22 08:56:00,91.77297297297298,92.0,18.369762617230418,185
5200,2018-03-22 07:00:00,116.46153846153847,122.0,22.310742497040096,13
5200,2018-03-22 07:04:00,119.11111111111111,117.0,9.102807869614246,9
5200,2018-03-22 07:08:00,113.2,111.0,10.331643487018761,15
5200,2018-03-22 07:12:00,113.78571428571429,117.0,14.017453798354786,14
5200,2018-03-22 07:16:00,121.0,119.0,4.810702354423639,15
5200,2018-03-22 07:20:00,119.11111111111111,122.0,12.947354437417111,18
5200,2018-03-22 07:24:00,114.05,108.5,18.991618650008967,20
5200,2018-03-22 07:28:00,109.78571428571429,108.5,11.26040422439192,14
5200,2018-03-22 07:32:00,111.5909090909091,115.5,14.744358375192318,22
5200,2018-03-22 07:36:00,109.35,111.0,12.044981483894794,20
5200,2018-03-22 07:40:00,108.39393939393939,111.0,13.207335542084639,33
5200,2018-03-22 07:44:00,102.25,101.5,21.2034656724258,24
5200,2018-03-22 07:48:00,108.48,111.0,17.685021911210626,25
5200,2018-03-22 07:52:00,109.8695652173913,111.0,14.426315436558948,23
5200,2018-03-22 07:56:00,107.5,106.0,17.150190443784137,32
5200,2018-03-22 08:00:00,111.45833333333333,109.5,10.512845834322494,24
5200,2018-03-22 08:04:00,104.57692307692308,104.5,14.497373767474096,26
5200,2018-03-22 08:08:00,78.95833333333333,87.5,27.098017201114267,24
5200,2018-03-22 08:12:00,99.12,106.0,20.439585775320072,25
5200,2018-03-22 08:16:00,109.10526315789474,114.0,13.337060882460426,19
5200,2018-03-22 08:20:00,117.03846153846153,114.0,16.491163134796214,26
5200,2018-03-22 08:24:00,89.65217391304348,97.0,26.353555384860783,23
5200,2018-03-22 08:28:00,94.52777777777777,94.0,21.5929699024092,36
5200,2018-03-22 08:32:00,94.70833333333333,104.5,28.508548171392025,24
5200,2018-03-22 08:36:00,82.6,87.5,34.85002349971998,30
5200,2018-03-22 08:40:00,69.375,68.0,34.70849100473956,24
5200,2018-03-22 08:44:00,104.0,106.0,16.0166579951416,31
5200,2018-03-22 08:48:00,108.21212121212122,108.0,11.696039863340431,33
5200,2018-03-22 08:52:00,99.0909090909091,97.0,17.954729025309582,22
5200,2018-03-22 08:56:00,106.82758620689656,106.0,11.071420626089632,29
5201,2018-03-22 07:00:00,92.0546875,94.0,20.121015219041055,128
5201,2018-03-22 07:04:00,91.8046875,90.5,18.48900869222738,128
5201,2018-03-22 07:08:00,80.83969465648855,86.0,24.480389889395504,131
5201,2018-03-22 07:12:00,89.05426356589147,94.0,22.09436794663382,129
5201,2018-03-22 07:16:00,94.96581196581197,97.0,25.175566844261034,117
5201,2018-03-22 07:20:00,68.73949579831933,75.0,23.338141541071433,119
5201,2018-03-22 07:24:00,62.450819672131146,69.0,21.98951758497912,122
5201,2018-03-22 07:28:00,59.488,61.0,18.471257532683307,125
5201,2018-03-22 07:32:00,72.67768595041322,72.0,18.30173711064657,121
5201,2018-03-22 07:36:00,55.277227722772274,58.0,20.303260236662084,101
5201,2018-03-22 07:40:00,49.68333333333333,53.0,16.503110648130118,120
5201,2018-03-22 07:44:00,57.45454545454545,61.0,23.10551638475479,110
5201,2018-03-22 07:48:00,50.61344537815126,56.0,19.44967833104993,119
5201,2018-03-22 07:52:00,51.242990654205606,50.0,22.93215634747842,107
5201,2018-03-22 07:56:00,49.71296296296296,53.0,19.303794080572796,108
5201,2018-03-22 08:00:00,48.6,53.0,17.558823442980295,115
5201,2018-03-22 08:04:00,50.88785046728972,56.0,20.175329181950676,107
5201,2018-03-22 08:08:00,35.56578947368421,39.0,13.822045701285361,76
5201,2018-03-22 08:12:00,51.357142857142854,53.0,17.641503655376184,112
5201,2018-03-22 08:16:00,35.53225806451613,33.0,17.111704116433774,62
5201,2018-03-22 08:20:00,35.28421052631579,36.0,15.033765654101483,95
5201,2018-03-22 08:24:00,33.747252747252745,33.0,13.16020382026679,91
5201,2018-03-22 08:28:00,49.03409090909091,53.0,20.14170994786253,88
5201,2018-03-22 08:32:00,48.46067415730337,53.0,18.92752695977672,89
5201,2018-03-22 08:36:00,42.44086021505376,44.0,15.798639433433468,93
5201,2018-03-22 08:40:00,33.06153846153846,33.0,15.810278424055467,65
5201,2018-03-22 08:44:00,47.48148148148148,47.0,17.857944896195132,108
5201,2018-03-22 08:48:00,32.63013698630137,31.0,15.886320853449737,73
5201,2018-03-22 08:52:00,33.015151515151516,33.0,16.15453489485221,66
5201,2018-03-22 08:56:00,46.12765957446808,50.0,15.858401689354736,94
5202,2018-03-22 07:00:00,116.26666666666667,117.0,8.413141647503172,15
5202,2018-03-22 07:04:00,111.57894736842105,114.0,13.937622104990526,19
5202,2018-03-22 07:08:00,108.23529411764706,108.0,8.821347769507119,17
5202,2018-03-22 07:12:00,108.45833333333333,107.0,12.897519703134922,24
5202,2018-03-22 07:16:00,120.8,120.5,8.791409948858538,10
5202,2018-03-22 07:20:00,110.58333333333333,107.0,11.49637624065369,24
5202,2018-03-22 07:24:00,108.66666666666667,106.0,10.389096848780136,21
5202,2018-03-22 07:28:00,113.03571428571429,114.0,10.450880320379692,28
5202,2018-03-22 07:32:00,108.21739130434783,106.0,14.47240798503744,23
5202,2018-03-22 07:36:00,101.7,106.0,11.841497060404944,20
5202,2018-03-22 07:40:00,106.75,106.0,19.08387917705529,28
5202,2018-03-22 07:44:00,116.46153846153847,117.0,9.896256738580373,13
5202,2018-03-22 07:48:00,117.75862068965517,117.0,11.340997601665615,29
5202,2018-03-22 07:52:00,114.20833333333333,115.5,18.684983895856206,24
5202,2018-03-22 07:56:00,106.12903225806451,111.0,15.949382298350136,31
5202,2018-03-22 08:00:00,103.8695652173913,103.0,10.5843123529207,23
5202,2018-03-22 08:04:00,99.86363636363636,98.5,11.089658221988607,22
5202,2018-03-22 08:08:00,90.5,95.5,19.827758320092567,26
5202,2018-03-22 08:12:00,63.82608695652174,58.0,25.28501563792826,23
5202,2018-03-22 08:16:00,88.03448275862068,97.0,20.77684624531543,29
5202,2018-03-22 08:20:00,64.68,72.0,24.086164770119243,25
5202,2018-03-22 08:24:00,30.142857142857142,36.0,11.345861422940587,21
5202,2018-03-22 08:28:00,30.047619047619047,31.0,7.486495778908786,21
5202,2018-03-22 08:32:00,31.434782608695652,31.0,14.844117558378354,23
5202,2018-03-22 08:36:00,27.46153846153846,26.5,11.437589848323007,26